Regional Weather Roundup
Issued by NWS

Home | Current Version | Previous Version | Text Only | Print | Product List | Glossary Off
Versions: 1 2 3 4 5 6 7 8 9 10 11 12 13 14 15 16 17 18 19 20 21 22 23 24 25 26 27 28 29 30 31 32 33 34 35 36 37 38 39 40 41 42 43 44 45 46 47 48 49 50

000
ASUS44 KMEG 231210
RWRTN
TENNESSEE HOURLY STATE WEATHER ROUNDUP
NATIONAL WEATHER SERVICE MEMPHIS TN
700 AM CDT TUE SEP 23 2014

TNZ002-004-019-021-049-052-054-088>092-231300-
WEST TENNESSEE

CITY           SKY/WX    TMP DP  RH WIND       PRES   REMARKS
MEMPHIS INTL   PTCLDY    55  46  71 E3        30.23R
NWS MEMPHIS      N/A     52 N/A N/A MISG        N/A
JACKSON        CLEAR     46  44  93 CALM      30.25R
DYERSBURG      CLEAR     48  37  66 NE5       30.27R
UNION CITY     CLEAR     45  45 100 CALM      30.25S
PARIS          CLEAR     45  43  93 NE5       30.26S
HUNTINGDON     CLEAR     46  43  90 CALM      30.26R
LEXINGTON      CLEAR     45  43  93 N5        30.24R
SAVANNAH       CLEAR     41  41 100 CALM      30.23S
$$

TNZ008-025-027-028-033-062-065-066-231300-
NORTH MIDDLE TENNESSEE

CITY           SKY/WX    TMP DP  RH WIND       PRES   REMARKS
NASHVILLE      CLEAR     51  45  79 CALM      30.26R
DICKSON        CLEAR     46  45  93 CALM      30.25R
PORTLAND       CLEAR     43  41  93 CALM      30.26R
CLARKSVILLE    CLEAR     45  42  89 NW3       30.28R
LEBANON        CLEAR     42  42 100 CALM      30.24R
SMYRNA         CLEAR     46  44  93 CALM      30.27R
MURFREESBORO   CLEAR     46  43  90 CALM      30.25
COOKEVILLE     CLEAR     41  39  93 CALM      30.25S
LIVINGSTON     CLEAR     47  46  96 NE6       30.26R
GALLATIN       CLEAR     46  45  97 CALM      30.27R
CROSSVILLE     CLEAR     48  44  86 NE5       30.27R
$$

TNZ061-075-076-078-094-096-097-231300-
SOUTH MIDDLE TENNESSEE

CITY           SKY/WX    TMP DP  RH WIND       PRES   REMARKS
LEWISBURG      CLEAR     41  40  96 CALM      30.24R
FAYETTEVILLE   CLEAR     48  45  87 NE10      30.22R
TULLAHOMA      CLEAR     50  46  87 NE3       30.25R
WINCHESTER     CLEAR     46  46 100 CALM      30.24R
MCMINNVILLE    CLEAR     46  46 100 CALM      30.25R
COLUMBIA       CLEAR     45  45 100 CALM      30.23S
SHELBYVILLE    CLEAR     45  45 100 CALM      30.25R
$$

TNZ017-018-042-046-047-231300-
NORTHEAST TENNESSEE

CITY           SKY/WX    TMP DP  RH WIND       PRES   REMARKS
TRI CITIES     PTCLDY    44  42  93 CALM      30.28R
ELIZABETHTON   SUNNY     43  43 100 CALM      30.28R
$$

TNZ012-013-036-069-073-074-231300-
CENTRAL EAST TENNESSEE

CITY           SKY/WX    TMP DP  RH WIND       PRES   REMARKS
KNOXVILLE      PTCLDY    52  49  89 N7        30.24R
OAK RIDGE      CLEAR     51  49  92 CALM      30.27R
GATLINBURG     SUNNY     45  45 100 CALM      30.25S
MORRISTOWN     SUNNY     48  48 100 CALM      30.27R
$$

TNZ083-085-099-231300-
SOUTHEAST TENNESSEE

CITY           SKY/WX    TMP DP  RH WIND       PRES   REMARKS
CHATTANOOGA    CLEAR     58  50  75 NE7       30.24R
$$

SKY/WX REPORTED AS FAIR MEANS FEW OR NO CLOUDS BELOW
12 THOUSAND FEET.



USA.gov is the U.S. government's official web portal to all federal, state and local government web resources and services.